Time,TemperatureF,DewpointF,PressureIn,WindDirection,WindDirectionDegrees,WindSpeedMPH,WindSpeedGustMPH,Humidity,HourlyPrecipIn,Conditions,Clouds,dailyrainin,SoftwareType,DateUTC
2013-03-21 00:00:00,13.6,11.4,29.90,East,83,5.0,9.0,91,0.00,,,0.00,WUHU216DAVISVP2,2013-03-21 04:00:00,
2013-03-21 00:05:00,13.7,11.5,29.90,ENE,69,4.0,8.0,91,0.00,,,0.00,WUHU216DAVISVP2,2013-03-21 04:05:00,
2013-03-21 00:10:00,13.7,11.5,29.89,ESE,110,3.0,8.0,91,0.00,,,0.00,WUHU216DAVISVP2,2013-03-21 04:10:00,
2013-03-21 00:15:00,13.7,11.6,29.89,ENE,72,5.0,8.0,91,0.00,,,0.00,WUHU216DAVISVP2,2013-03-21 04:15:00,
2013-03-21 00:20:00,13.8,11.6,29.89,East,90,3.0,8.0,91,0.00,,,0.00,WUHU216DAVISVP2,2013-03-21 04:20:00,
2013-03-21 00:25:00,13.9,12.0,29.89,ENE,78,2.0,7.0,92,0.00,,,0.00,WUHU216DAVISVP2,2013-03-21 04:25:00,
2013-03-21 00:30:00,13.9,12.0,29.89,East,96,7.0,9.0,92,0.00,,,0.00,WUHU216DAVISVP2,2013-03-21 04:30:00,
2013-03-21 00:35:00,14.1,12.2,29.89,ENE,74,5.0,9.0,92,0.00,,,0.00,WUHU216DAVISVP2,2013-03-21 04:35:00,
2013-03-21 00:40:00,14.1,12.2,29.89,East,96,6.0,9.0,92,0.00,,,0.00,WUHU216DAVISVP2,2013-03-21 04:40:00,
2013-03-21 00:45:00,14.1,12.2,29.88,East,86,2.0,8.0,92,0.00,,,0.00,WUHU216DAVISVP2,2013-03-21 04:45:00,
2013-03-21 00:50:00,14.1,12.2,29.88,East,90,4.0,8.0,92,0.00,,,0.00,WUHU216DAVISVP2,2013-03-21 04:50:00,
2013-03-21 00:55:00,14.1,12.2,29.88,ENE,71,5.0,8.0,92,0.00,,,0.00,WUHU216DAVISVP2,2013-03-21 04:55:00,
2013-03-21 01:00:00,14.2,12.3,29.88,East,92,4.0,8.0,92,0.00,,,0.00,WUHU216DAVISVP2,2013-03-21 05:00:00,
2013-03-21 01:05:00,14.2,12.3,29.88,East,80,3.0,8.0,92,0.00,,,0.00,WUHU216DAVISVP2,2013-03-21 05:05:00,
2013-03-21 01:10:00,14.2,12.3,29.88,East,94,3.0,9.0,92,0.00,,,0.00,WUHU216DAVISVP2,2013-03-21 05:10:00,
2013-03-21 01:15:00,14.3,12.4,29.88,East,85,6.0,9.0,92,0.00,,,0.00,WUHU216DAVISVP2,2013-03-21 05:15:00,
2013-03-21 01:20:00,14.2,12.3,29.88,East,84,3.0,8.0,92,0.00,,,0.00,WUHU216DAVISVP2,2013-03-21 05:20:00,
2013-03-21 01:25:00,14.1,12.2,29.87,East,84,4.0,8.0,92,0.00,,,0.00,WUHU216DAVISVP2,2013-03-21 05:25:00,
2013-03-21 01:30:00,14.1,12.2,29.87,East,88,5.0,8.0,92,0.00,,,0.00,WUHU216DAVISVP2,2013-03-21 05:30:00,
2013-03-21 01:35:00,14.1,12.2,29.87,ENE,67,3.0,7.0,92,0.00,,,0.00,WUHU216DAVISVP2,2013-03-21 05:35:00,
2013-03-21 01:40:00,14.1,12.2,29.87,East,82,4.0,7.0,92,0.00,,,0.00,WUHU216DAVISVP2,2013-03-21 05:40:00,
2013-03-21 01:45:00,14.1,12.2,29.87,ENE,67,4.0,6.0,92,0.00,,,0.00,WUHU216DAVISVP2,2013-03-21 05:45:00,
2013-03-21 01:50:00,14.3,12.4,29.87,East,81,4.0,7.0,92,0.00,,,0.00,WUHU216DAVISVP2,2013-03-21 05:50:00,
2013-03-21 01:55:00,14.3,12.4,29.87,East,79,2.0,7.0,92,0.00,,,0.00,WUHU216DAVISVP2,2013-03-21 05:55:00,
2013-03-21 02:00:00,14.4,12.5,29.87,ESE,104,3.0,7.0,92,0.00,,,0.00,WUHU216DAVISVP2,2013-03-21 06:00:00,
2013-03-21 02:05:00,14.5,12.6,29.87,East,94,2.0,7.0,92,0.00,,,0.00,WUHU216DAVISVP2,2013-03-21 06:05:00,
2013-03-21 02:10:00,14.7,13.0,29.86,East,94,3.0,7.0,93,0.00,,,0.00,WUHU216DAVISVP2,2013-03-21 06:10:00,
2013-03-21 02:15:00,14.8,12.8,29.86,ENE,72,3.0,7.0,92,0.00,,,0.00,WUHU216DAVISVP2,2013-03-21 06:15:00,
2013-03-21 02:20:00,14.8,12.8,29.87,ENE,64,2.0,6.0,92,0.00,,,0.00,WUHU216DAVISVP2,2013-03-21 06:20:00,
2013-03-21 02:25:00,14.7,12.7,29.87,ENE,57,4.0,6.0,92,0.00,,,0.00,WUHU216DAVISVP2,2013-03-21 06:25:00,
2013-03-21 02:30:00,14.6,12.7,29.87,ENE,70,3.0,5.0,92,0.00,,,0.00,WUHU216DAVISVP2,2013-03-21 06:30:00,
2013-03-21 02:35:00,14.5,12.6,29.87,ENE,76,2.0,5.0,92,0.00,,,0.00,WUHU216DAVISVP2,2013-03-21 06:35:00,
2013-03-21 02:40:00,14.4,12.5,29.86,East,80,1.0,5.0,92,0.00,,,0.00,WUHU216DAVISVP2,2013-03-21 06:40:00,
2013-03-21 02:45:00,14.3,12.4,29.86,East,94,1.0,4.0,92,0.00,,,0.00,WUHU216DAVISVP2,2013-03-21 06:45:00,
2013-03-21 02:50:00,14.3,12.4,29.86,East,92,1.0,4.0,92,0.00,,,0.00,WUHU216DAVISVP2,2013-03-21 06:50:00,
2013-03-21 02:55:00,14.3,12.4,29.86,ENE,77,2.0,4.0,92,0.00,,,0.00,WUHU216DAVISVP2,2013-03-21 06:55:00,
2013-03-21 03:00:00,14.3,12.6,29.86,East,85,2.0,4.0,93,0.00,,,0.00,WUHU216DAVISVP2,2013-03-21 07:00:00,
2013-03-21 03:05:00,14.3,12.6,29.85,ENE,70,1.0,4.0,93,0.00,,,0.00,WUHU216DAVISVP2,2013-03-21 07:05:00,
2013-03-21 03:10:00,14.4,12.7,29.86,ENE,75,2.0,5.0,93,0.00,,,0.00,WUHU216DAVISVP2,2013-03-21 07:10:00,
2013-03-21 03:15:00,14.4,12.7,29.85,East,96,2.0,5.0,93,0.00,,,0.00,WUHU216DAVISVP2,2013-03-21 07:15:00,
2013-03-21 03:20:00,14.4,12.7,29.85,East,85,4.0,5.0,93,0.00,,,0.00,WUHU216DAVISVP2,2013-03-21 07:20:00,
2013-03-21 03:25:00,14.5,12.8,29.85,ENE,70,3.0,5.0,93,0.00,,,0.00,WUHU216DAVISVP2,2013-03-21 07:25:00,
2013-03-21 03:30:00,14.5,12.8,29.85,East,86,2.0,5.0,93,0.00,,,0.00,WUHU216DAVISVP2,2013-03-21 07:30:00,
2013-03-21 03:35:00,14.5,12.8,29.85,ENE,72,2.0,5.0,93,0.00,,,0.00,WUHU216DAVISVP2,2013-03-21 07:35:00,
2013-03-21 03:40:00,14.4,12.7,29.85,East,89,5.0,5.0,93,0.00,,,0.00,WUHU216DAVISVP2,2013-03-21 07:40:00,
2013-03-21 03:45:00,14.5,12.8,29.85,ENE,77,3.0,5.0,93,0.00,,,0.00,WUHU216DAVISVP2,2013-03-21 07:45:00,
2013-03-21 03:50:00,14.5,12.8,29.85,East,98,3.0,5.0,93,0.00,,,0.00,WUHU216DAVISVP2,2013-03-21 07:50:00,
2013-03-21 03:55:00,14.5,12.8,29.85,ENE,77,5.0,5.0,93,0.00,,,0.00,WUHU216DAVISVP2,2013-03-21 07:55:00,
2013-03-21 04:00:00,14.5,12.8,29.85,East,81,3.0,5.0,93,0.00,,,0.00,WUHU216DAVISVP2,2013-03-21 08:00:00,
2013-03-21 04:05:00,14.5,12.8,29.85,ENE,77,5.0,5.0,93,0.00,,,0.00,WUHU216DAVISVP2,2013-03-21 08:05:00,
2013-03-21 04:10:00,14.5,12.8,29.85,East,96,3.0,5.0,93,0.00,,,0.00,WUHU216DAVISVP2,2013-03-21 08:10:00,
2013-03-21 04:15:00,14.5,12.8,29.85,ENE,78,2.0,5.0,93,0.00,,,0.00,WUHU216DAVISVP2,2013-03-21 08:15:00,
2013-03-21 04:20:00,14.4,12.7,29.85,East,88,2.0,5.0,93,0.00,,,0.00,WUHU216DAVISVP2,2013-03-21 08:20:00,
2013-03-21 04:25:00,14.3,12.6,29.85,ESE,110,3.0,4.0,93,0.00,,,0.00,WUHU216DAVISVP2,2013-03-21 08:25:00,
2013-03-21 04:30:00,14.4,12.7,29.85,East,89,2.0,6.0,93,0.00,,,0.00,WUHU216DAVISVP2,2013-03-21 08:30:00,
2013-03-21 04:35:00,14.4,12.7,29.85,ENE,78,2.0,6.0,93,0.00,,,0.00,WUHU216DAVISVP2,2013-03-21 08:35:00,
2013-03-21 04:40:00,14.4,12.7,29.85,ENE,75,4.0,6.0,93,0.00,,,0.00,WUHU216DAVISVP2,2013-03-21 08:40:00,
2013-03-21 04:45:00,14.5,12.8,29.84,East,88,2.0,6.0,93,0.00,,,0.00,WUHU216DAVISVP2,2013-03-21 08:45:00,
2013-03-21 04:50:00,14.6,12.9,29.84,East,100,4.0,5.0,93,0.00,,,0.00,WUHU216DAVISVP2,2013-03-21 08:50:00,
2013-03-21 04:55:00,14.9,13.5,29.84,East,94,4.0,6.0,94,0.00,,,0.00,WUHU216DAVISVP2,2013-03-21 08:55:00,
2013-03-21 05:00:00,15.2,13.7,29.84,East,88,2.0,8.0,94,0.00,,,0.00,WUHU216DAVISVP2,2013-03-21 09:00:00,
2013-03-21 05:05:00,15.3,13.8,29.84,East,99,3.0,8.0,94,0.00,,,0.00,WUHU216DAVISVP2,2013-03-21 09:05:00,
2013-03-21 05:10:00,15.4,13.7,29.84,East,98,3.0,7.0,93,0.00,,,0.00,WUHU216DAVISVP2,2013-03-21 09:10:00,
2013-03-21 05:15:00,15.4,13.7,29.84,ESE,120,2.0,7.0,93,0.00,,,0.00,WUHU216DAVISVP2,2013-03-21 09:15:00,
2013-03-21 05:20:00,15.4,13.7,29.84,ESE,104,4.0,6.0,93,0.00,,,0.00,WUHU216DAVISVP2,2013-03-21 09:20:00,
2013-03-21 05:25:00,15.5,13.8,29.84,East,96,2.0,6.0,93,0.00,,,0.00,WUHU216DAVISVP2,2013-03-21 09:25:00,
2013-03-21 05:30:00,15.5,13.8,29.84,East,99,3.0,6.0,93,0.00,,,0.00,WUHU216DAVISVP2,2013-03-21 09:30:00,
2013-03-21 05:35:00,15.6,13.9,29.84,East,84,2.0,6.0,93,0.00,,,0.00,WUHU216DAVISVP2,2013-03-21 09:35:00,
2013-03-21 05:40:00,15.7,14.0,29.84,East,85,4.0,6.0,93,0.00,,,0.00,WUHU216DAVISVP2,2013-03-21 09:40:00,
2013-03-21 05:45:00,15.8,14.1,29.84,ENE,70,3.0,6.0,93,0.00,,,0.00,WUHU216DAVISVP2,2013-03-21 09:45:00,
2013-03-21 05:50:00,15.8,14.1,29.84,East,98,3.0,6.0,93,0.00,,,0.00,WUHU216DAVISVP2,2013-03-21 09:50:00,
2013-03-21 05:55:00,15.8,14.1,29.85,ESE,111,1.0,5.0,93,0.00,,,0.00,WUHU216DAVISVP2,2013-03-21 09:55:00,
2013-03-21 06:00:00,15.8,14.1,29.84,East,86,4.0,5.0,93,0.00,,,0.00,WUHU216DAVISVP2,2013-03-21 10:00:00,
2013-03-21 06:05:00,15.8,14.1,29.84,East,86,4.0,5.0,93,0.00,,,0.00,WUHU216DAVISVP2,2013-03-21 10:05:00,
2013-03-21 06:10:00,15.9,14.2,29.84,East,90,2.0,6.0,93,0.00,,,0.00,WUHU216DAVISVP2,2013-03-21 10:10:00,
2013-03-21 06:15:00,16.2,14.5,29.84,East,95,4.0,6.0,93,0.00,,,0.00,WUHU216DAVISVP2,2013-03-21 10:15:00,
2013-03-21 06:20:00,16.4,14.9,29.84,ESE,102,4.0,6.0,94,0.00,,,0.00,WUHU216DAVISVP2,2013-03-21 10:20:00,
2013-03-21 06:25:00,16.6,15.1,29.84,ESE,118,2.0,6.0,94,0.00,,,0.00,WUHU216DAVISVP2,2013-03-21 10:25:00,
2013-03-21 06:30:00,16.8,15.3,29.84,East,93,2.0,5.0,94,0.00,,,0.00,WUHU216DAVISVP2,2013-03-21 10:30:00,
2013-03-21 06:35:00,17.1,15.6,29.84,East,87,2.0,6.0,94,0.00,,,0.00,WUHU216DAVISVP2,2013-03-21 10:35:00,
2013-03-21 06:40:00,17.3,15.8,29.85,East,88,4.0,6.0,94,0.00,,,0.00,WUHU216DAVISVP2,2013-03-21 10:40:00,
2013-03-21 06:45:00,17.3,15.6,29.85,East,92,3.0,9.0,93,0.00,,,0.00,WUHU216DAVISVP2,2013-03-21 10:45:00,
2013-03-21 06:50:00,17.4,15.7,29.85,ESE,105,3.0,9.0,93,0.00,,,0.00,WUHU216DAVISVP2,2013-03-21 10:50:00,
2013-03-21 06:55:00,17.4,15.7,29.85,ENE,75,4.0,8.0,93,0.00,,,0.00,WUHU216DAVISVP2,2013-03-21 10:55:00,
2013-03-21 07:00:00,17.4,15.7,29.85,ESE,105,3.0,8.0,93,0.00,,,0.00,WUHU216DAVISVP2,2013-03-21 11:00:00,
2013-03-21 07:05:00,17.4,15.7,29.85,ENE,77,4.0,7.0,93,0.00,,,0.00,WUHU216DAVISVP2,2013-03-21 11:05:00,
2013-03-21 07:10:00,17.5,15.8,29.85,East,92,4.0,7.0,93,0.00,,,0.00,WUHU216DAVISVP2,2013-03-21 11:10:00,
2013-03-21 07:15:00,17.5,15.8,29.85,SE,128,2.0,7.0,93,0.00,,,0.00,WUHU216DAVISVP2,2013-03-21 11:15:00,
2013-03-21 07:20:00,17.6,15.9,29.84,ESE,113,5.0,7.0,93,0.00,,,0.00,WUHU216DAVISVP2,2013-03-21 11:20:00,
2013-03-21 07:25:00,17.7,16.0,29.85,East,85,2.0,6.0,93,0.00,,,0.00,WUHU216DAVISVP2,2013-03-21 11:25:00,
2013-03-21 07:30:00,17.8,16.1,29.85,East,94,3.0,6.0,93,0.00,,,0.00,WUHU216DAVISVP2,2013-03-21 11:30:00,
2013-03-21 07:35:00,17.9,16.2,29.85,ESE,106,2.0,6.0,93,0.00,,,0.00,WUHU216DAVISVP2,2013-03-21 11:35:00,
2013-03-21 07:40:00,17.9,16.4,29.85,SE,139,2.0,6.0,94,0.00,,,0.00,WUHU216DAVISVP2,2013-03-21 11:40:00,
2013-03-21 07:45:00,18.0,16.5,29.85,East,80,4.0,5.0,94,0.00,,,0.00,WUHU216DAVISVP2,2013-03-21 11:45:00,
2013-03-21 07:50:00,18.1,16.6,29.85,East,84,3.0,5.0,94,0.00,,,0.00,WUHU216DAVISVP2,2013-03-21 11:50:00,
2013-03-21 07:55:00,18.2,16.7,29.84,ESE,103,2.0,6.0,94,0.00,,,0.00,WUHU216DAVISVP2,2013-03-21 11:55:00,
2013-03-21 08:00:00,18.3,16.8,29.84,East,99,3.0,6.0,94,0.00,,,0.00,WUHU216DAVISVP2,2013-03-21 12:00:00,
2013-03-21 08:05:00,18.4,16.7,29.84,East,96,3.0,5.0,93,0.00,,,0.00,WUHU216DAVISVP2,2013-03-21 12:05:00,
2013-03-21 08:10:00,18.5,16.8,29.84,ESE,109,3.0,5.0,93,0.00,,,0.00,WUHU216DAVISVP2,2013-03-21 12:10:00,
2013-03-21 08:15:00,18.7,17.2,29.84,East,90,3.0,5.0,94,0.00,,,0.00,WUHU216DAVISVP2,2013-03-21 12:15:00,
2013-03-21 08:20:00,18.8,17.3,29.85,ESE,105,3.0,6.0,94,0.00,,,0.00,WUHU216DAVISVP2,2013-03-21 12:20:00,
2013-03-21 08:25:00,19.0,17.5,29.84,ESE,105,3.0,6.0,94,0.00,,,0.00,WUHU216DAVISVP2,2013-03-21 12:25:00,
2013-03-21 08:30:00,19.3,17.6,29.85,East,89,2.0,6.0,93,0.00,,,0.00,WUHU216DAVISVP2,2013-03-21 12:30:00,
2013-03-21 08:35:00,19.5,17.8,29.85,ESE,117,4.0,7.0,93,0.00,,,0.00,WUHU216DAVISVP2,2013-03-21 12:35:00,
2013-03-21 08:40:00,19.7,18.0,29.85,East,83,6.0,7.0,93,0.00,,,0.00,WUHU216DAVISVP2,2013-03-21 12:40:00,
2013-03-21 08:45:00,19.9,18.2,29.85,ESE,121,2.0,7.0,93,0.00,,,0.00,WUHU216DAVISVP2,2013-03-21 12:45:00,
2013-03-21 08:50:00,20.1,18.4,29.85,ENE,67,4.0,9.0,93,0.00,,,0.00,WUHU216DAVISVP2,2013-03-21 12:50:00,
2013-03-21 08:55:00,20.4,18.7,29.85,ENE,74,5.0,9.0,93,0.00,,,0.00,WUHU216DAVISVP2,2013-03-21 12:55:00,
2013-03-21 09:00:00,20.6,18.9,29.85,East,97,8.0,9.0,93,0.00,,,0.00,WUHU216DAVISVP2,2013-03-21 13:00:00,
2013-03-21 09:05:00,20.9,18.9,29.85,East,91,4.0,9.0,92,0.00,,,0.00,WUHU216DAVISVP2,2013-03-21 13:05:00,
2013-03-21 09:10:00,21.1,19.1,29.85,ENE,72,5.0,9.0,92,0.00,,,0.00,WUHU216DAVISVP2,2013-03-21 13:10:00,
2013-03-21 09:15:00,21.3,19.3,29.85,East,98,6.0,10.0,92,0.00,,,0.00,WUHU216DAVISVP2,2013-03-21 13:15:00,
2013-03-21 09:20:00,21.5,19.5,29.85,SE,129,5.0,10.0,92,0.00,,,0.00,WUHU216DAVISVP2,2013-03-21 13:20:00,
2013-03-21 09:25:00,21.7,19.4,29.86,SE,134,4.0,10.0,91,0.00,,,0.00,WUHU216DAVISVP2,2013-03-21 13:25:00,
2013-03-21 09:30:00,21.9,19.6,29.86,SE,132,9.0,10.0,91,0.00,,,0.00,WUHU216DAVISVP2,2013-03-21 13:30:00,
2013-03-21 09:35:00,22.1,19.8,29.86,ESE,113,3.0,10.0,91,0.00,,,0.00,WUHU216DAVISVP2,2013-03-21 13:35:00,
2013-03-21 09:40:00,22.3,20.0,29.86,East,89,6.0,10.0,91,0.00,,,0.00,WUHU216DAVISVP2,2013-03-21 13:40:00,
2013-03-21 09:45:00,22.5,20.2,29.86,East,81,4.0,10.0,91,0.00,,,0.00,WUHU216DAVISVP2,2013-03-21 13:45:00,
2013-03-21 09:50:00,22.6,20.1,29.86,SSE,154,7.0,10.0,90,0.00,,,0.00,WUHU216DAVISVP2,2013-03-21 13:50:00,
2013-03-21 09:55:00,22.8,20.3,29.86,ESE,117,4.0,10.0,90,0.00,,,0.00,WUHU216DAVISVP2,2013-03-21 13:55:00,
2013-03-21 10:00:00,23.0,20.5,29.86,East,91,4.0,10.0,90,0.00,,,0.00,WUHU216DAVISVP2,2013-03-21 14:00:00,
2013-03-21 10:05:00,23.4,20.6,29.86,ENE,66,10.0,12.0,89,0.00,,,0.00,WUHU216DAVISVP2,2013-03-21 14:05:00,
2013-03-21 10:10:00,23.7,20.9,29.86,ESE,103,7.0,12.0,89,0.00,,,0.00,WUHU216DAVISVP2,2013-03-21 14:10:00,
2013-03-21 10:15:00,23.8,20.7,29.86,East,90,4.0,12.0,88,0.00,,,0.00,WUHU216DAVISVP2,2013-03-21 14:15:00,
2013-03-21 10:20:00,24.3,21.2,29.86,East,99,3.0,11.0,88,0.00,,,0.00,WUHU216DAVISVP2,2013-03-21 14:20:00,
2013-03-21 10:25:00,24.4,21.0,29.86,SE,146,3.0,12.0,87,0.00,,,0.00,WUHU216DAVISVP2,2013-03-21 14:25:00,
2013-03-21 10:30:00,24.8,21.4,29.86,East,98,4.0,12.0,87,0.00,,,0.00,WUHU216DAVISVP2,2013-03-21 14:30:00,
2013-03-21 10:35:00,24.8,21.4,29.86,East,97,5.0,13.0,87,0.00,,,0.00,WUHU216DAVISVP2,2013-03-21 14:35:00,
2013-03-21 10:40:00,24.8,21.2,29.86,ESE,105,3.0,13.0,86,0.00,,,0.00,WUHU216DAVISVP2,2013-03-21 14:40:00,
2013-03-21 10:45:00,24.9,21.3,29.86,East,93,4.0,12.0,86,0.00,,,0.00,WUHU216DAVISVP2,2013-03-21 14:45:00,
2013-03-21 10:50:00,25.2,21.6,29.86,East,94,4.0,11.0,86,0.00,,,0.00,WUHU216DAVISVP2,2013-03-21 14:50:00,
2013-03-21 10:55:00,25.7,22.1,29.86,SE,146,4.0,10.0,86,0.00,,,0.00,WUHU216DAVISVP2,2013-03-21 14:55:00,
2013-03-21 11:00:00,25.9,21.7,29.86,ESE,106,9.0,10.0,84,0.00,,,0.00,WUHU216DAVISVP2,2013-03-21 15:00:00,
2013-03-21 11:05:00,25.9,22.0,29.86,East,95,7.0,12.0,85,0.00,,,0.00,WUHU216DAVISVP2,2013-03-21 15:05:00,
2013-03-21 11:10:00,26.2,22.0,29.87,ESE,116,5.0,12.0,84,0.00,,,0.00,WUHU216DAVISVP2,2013-03-21 15:10:00,
2013-03-21 11:15:00,26.3,22.1,29.87,ESE,121,5.0,12.0,84,0.00,,,0.00,WUHU216DAVISVP2,2013-03-21 15:15:00,
2013-03-21 11:20:00,26.6,22.4,29.87,SE,138,5.0,12.0,84,0.00,,,0.00,WUHU216DAVISVP2,2013-03-21 15:20:00,
2013-03-21 11:25:00,26.7,22.5,29.87,ESE,108,4.0,8.0,84,0.00,,,0.00,WUHU216DAVISVP2,2013-03-21 15:25:00,
2013-03-21 11:30:00,26.5,22.0,29.87,East,91,7.0,9.0,83,0.00,,,0.00,WUHU216DAVISVP2,2013-03-21 15:30:00,
2013-03-21 11:35:00,26.4,22.2,29.87,SE,131,6.0,9.0,84,0.00,,,0.00,WUHU216DAVISVP2,2013-03-21 15:35:00,
2013-03-21 11:40:00,26.6,22.4,29.87,ESE,118,7.0,9.0,84,0.00,,,0.00,WUHU216DAVISVP2,2013-03-21 15:40:00,
2013-03-21 11:45:00,26.8,22.3,29.87,SE,127,6.0,10.0,83,0.00,,,0.00,WUHU216DAVISVP2,2013-03-21 15:45:00,
2013-03-21 11:50:00,26.9,22.4,29.87,SE,125,6.0,11.0,83,0.00,,,0.00,WUHU216DAVISVP2,2013-03-21 15:50:00,
2013-03-21 11:55:00,27.1,22.6,29.86,ESE,119,8.0,11.0,83,0.00,,,0.00,WUHU216DAVISVP2,2013-03-21 15:55:00,
2013-03-21 12:00:00,27.4,22.9,29.87,East,101,5.0,12.0,83,0.00,,,0.00,WUHU216DAVISVP2,2013-03-21 16:00:00,
2013-03-21 12:05:00,27.6,23.1,29.87,SE,134,6.0,12.0,83,0.00,,,0.00,WUHU216DAVISVP2,2013-03-21 16:05:00,
2013-03-21 12:10:00,27.8,22.7,29.87,ESE,121,4.0,14.0,81,0.00,,,0.00,WUHU216DAVISVP2,2013-03-21 16:10:00,
2013-03-21 12:15:00,28.1,22.7,29.87,SE,132,3.0,14.0,80,0.00,,,0.00,WUHU216DAVISVP2,2013-03-21 16:15:00,
2013-03-21 12:20:00,28.3,22.9,29.87,East,96,5.0,12.0,80,0.00,,,0.00,WUHU216DAVISVP2,2013-03-21 16:20:00,
2013-03-21 12:25:00,28.3,22.9,29.87,ESE,109,7.0,11.0,80,0.00,,,0.00,WUHU216DAVISVP2,2013-03-21 16:25:00,
2013-03-21 12:30:00,28.5,23.1,29.86,ESE,109,4.0,11.0,80,0.00,,,0.00,WUHU216DAVISVP2,2013-03-21 16:30:00,
2013-03-21 12:35:00,28.3,22.6,29.86,SE,134,11.0,13.0,79,0.00,,,0.00,WUHU216DAVISVP2,2013-03-21 16:35:00,
2013-03-21 12:40:00,28.1,22.7,29.87,ESE,111,6.0,13.0,80,0.00,,,0.00,WUHU216DAVISVP2,2013-03-21 16:40:00,
2013-03-21 12:45:00,28.3,22.9,29.87,East,96,9.0,15.0,80,0.00,,,0.00,WUHU216DAVISVP2,2013-03-21 16:45:00,
2013-03-21 12:50:00,28.4,22.7,29.87,ESE,106,8.0,15.0,79,0.00,,,0.00,WUHU216DAVISVP2,2013-03-21 16:50:00,
2013-03-21 12:55:00,28.2,22.8,29.87,SE,134,4.0,15.0,80,0.00,,,0.00,WUHU216DAVISVP2,2013-03-21 16:55:00,
2013-03-21 13:00:00,28.5,22.8,29.87,ESE,121,8.0,15.0,79,0.00,,,0.00,WUHU216DAVISVP2,2013-03-21 17:00:00,
2013-03-21 13:05:00,28.3,22.6,29.87,ESE,110,7.0,13.0,79,0.00,,,0.00,WUHU216DAVISVP2,2013-03-21 17:05:00,
2013-03-21 13:10:00,28.1,22.7,29.87,SE,127,5.0,13.0,80,0.00,,,0.00,WUHU216DAVISVP2,2013-03-21 17:10:00,
2013-03-21 13:15:00,27.9,23.4,29.87,ESE,117,8.0,12.0,83,0.00,,,0.00,WUHU216DAVISVP2,2013-03-21 17:15:00,
2013-03-21 13:20:00,27.8,23.6,29.87,SE,129,7.0,13.0,84,0.00,,,0.00,WUHU216DAVISVP2,2013-03-21 17:20:00,
2013-03-21 13:25:00,28.0,23.8,29.87,East,95,5.0,13.0,84,0.00,,,0.00,WUHU216DAVISVP2,2013-03-21 17:25:00,
2013-03-21 13:30:00,28.1,23.6,29.88,ESE,105,6.0,13.0,83,0.00,,,0.00,WUHU216DAVISVP2,2013-03-21 17:30:00,
2013-03-21 13:35:00,28.1,23.0,29.87,ENE,71,10.0,14.0,81,0.00,,,0.00,WUHU216DAVISVP2,2013-03-21 17:35:00,
2013-03-21 13:40:00,28.2,23.1,29.87,East,79,6.0,14.0,81,0.00,,,0.00,WUHU216DAVISVP2,2013-03-21 17:40:00,
2013-03-21 13:45:00,28.5,23.1,29.87,SE,132,3.0,12.0,80,0.00,,,0.00,WUHU216DAVISVP2,2013-03-21 17:45:00,
2013-03-21 13:50:00,28.9,22.6,29.87,East,90,8.0,12.0,77,0.00,,,0.00,WUHU216DAVISVP2,2013-03-21 17:50:00,
2013-03-21 13:55:00,28.9,22.0,29.87,ESE,115,7.0,13.0,75,0.00,,,0.00,WUHU216DAVISVP2,2013-03-21 17:55:00,
2013-03-21 14:00:00,28.9,21.7,29.87,ENE,71,9.0,15.0,74,0.00,,,0.00,WUHU216DAVISVP2,2013-03-21 18:00:00,
2013-03-21 14:05:00,28.9,20.7,29.88,SE,134,10.0,16.0,71,0.00,,,0.00,WUHU216DAVISVP2,2013-03-21 18:05:00,
2013-03-21 14:10:00,28.9,22.9,29.87,East,101,9.0,16.0,78,0.00,,,0.00,WUHU216DAVISVP2,2013-03-21 18:10:00,
2013-03-21 14:15:00,28.4,23.0,29.87,East,93,10.0,17.0,80,0.00,,,0.00,WUHU216DAVISVP2,2013-03-21 18:15:00,
2013-03-21 14:20:00,28.2,23.1,29.87,ESE,119,5.0,17.0,81,0.00,,,0.00,WUHU216DAVISVP2,2013-03-21 18:20:00,
2013-03-21 14:25:00,28.3,23.2,29.87,East,92,11.0,15.0,81,0.00,,,0.00,WUHU216DAVISVP2,2013-03-21 18:25:00,
2013-03-21 14:30:00,28.3,22.9,29.87,ENE,71,5.0,15.0,80,0.00,,,0.00,WUHU216DAVISVP2,2013-03-21 18:30:00,
2013-03-21 14:35:00,28.3,22.3,29.87,East,101,9.0,14.0,78,0.00,,,0.00,WUHU216DAVISVP2,2013-03-21 18:35:00,
2013-03-21 14:40:00,28.4,22.4,29.87,ESE,116,7.0,15.0,78,0.00,,,0.00,WUHU216DAVISVP2,2013-03-21 18:40:00,
2013-03-21 14:45:00,28.3,22.6,29.87,SE,132,9.0,16.0,79,0.00,,,0.00,WUHU216DAVISVP2,2013-03-21 18:45:00,
2013-03-21 14:50:00,28.5,22.8,29.87,East,91,6.0,16.0,79,0.00,,,0.00,WUHU216DAVISVP2,2013-03-21 18:50:00,
2013-03-21 14:55:00,28.3,22.3,29.87,SE,125,5.0,16.0,78,0.00,,,0.00,WUHU216DAVISVP2,2013-03-21 18:55:00,
2013-03-21 15:00:00,28.3,23.2,29.87,ENE,77,8.0,15.0,81,0.00,,,0.00,WUHU216DAVISVP2,2013-03-21 19:00:00,
2013-03-21 15:05:00,28.5,23.1,29.87,ENE,74,6.0,15.0,80,0.00,,,0.00,WUHU216DAVISVP2,2013-03-21 19:05:00,
2013-03-21 15:10:00,28.4,23.6,29.87,ENE,74,16.0,16.0,82,0.00,,,0.00,WUHU216DAVISVP2,2013-03-21 19:10:00,
2013-03-21 15:15:00,28.0,23.8,29.86,East,85,11.0,16.0,84,0.00,,,0.00,WUHU216DAVISVP2,2013-03-21 19:15:00,
2013-03-21 15:20:00,28.1,24.1,29.87,ESE,110,3.0,16.0,85,0.00,,,0.00,WUHU216DAVISVP2,2013-03-21 19:20:00,
2013-03-21 15:25:00,28.5,24.3,29.87,ESE,121,5.0,14.0,84,0.00,,,0.00,WUHU216DAVISVP2,2013-03-21 19:25:00,
2013-03-21 15:30:00,28.5,24.3,29.86,ENE,78,8.0,14.0,84,0.00,,,0.00,WUHU216DAVISVP2,2013-03-21 19:30:00,
2013-03-21 15:35:00,28.5,24.0,29.86,East,95,7.0,17.0,83,0.00,,,0.00,WUHU216DAVISVP2,2013-03-21 19:35:00,
2013-03-21 15:40:00,28.5,23.7,29.86,SE,131,12.0,17.0,82,0.00,,,0.00,WUHU216DAVISVP2,2013-03-21 19:40:00,
2013-03-21 15:45:00,28.5,23.7,29.86,ESE,117,5.0,16.0,82,0.00,,,0.00,WUHU216DAVISVP2,2013-03-21 19:45:00,
2013-03-21 15:50:00,28.5,23.7,29.86,East,95,14.0,22.0,82,0.00,,,0.00,WUHU216DAVISVP2,2013-03-21 19:50:00,
2013-03-21 15:55:00,28.6,23.5,29.86,East,87,10.0,22.0,81,0.00,,,0.00,WUHU216DAVISVP2,2013-03-21 19:55:00,
2013-03-21 16:00:00,28.4,23.6,29.86,ESE,103,7.0,20.0,82,0.00,,,0.00,WUHU216DAVISVP2,2013-03-21 20:00:00,
2013-03-21 16:05:00,28.3,23.5,29.87,ESE,109,5.0,20.0,82,0.00,,,0.00,WUHU216DAVISVP2,2013-03-21 20:05:00,
2013-03-21 16:10:00,28.2,23.4,29.87,East,101,5.0,17.0,82,0.00,,,0.00,WUHU216DAVISVP2,2013-03-21 20:10:00,
2013-03-21 16:15:00,28.3,23.2,29.87,East,91,8.0,15.0,81,0.00,,,0.00,WUHU216DAVISVP2,2013-03-21 20:15:00,
2013-03-21 16:20:00,28.2,22.8,29.86,SE,129,4.0,15.0,80,0.00,,,0.00,WUHU216DAVISVP2,2013-03-21 20:20:00,
2013-03-21 16:25:00,28.3,22.3,29.87,ESE,121,11.0,14.0,78,0.00,,,0.00,WUHU216DAVISVP2,2013-03-21 20:25:00,
2013-03-21 16:30:00,28.3,22.0,29.87,SE,146,7.0,17.0,77,0.00,,,0.00,WUHU216DAVISVP2,2013-03-21 20:30:00,
2013-03-21 16:38:00,28.2,21.6,29.87,East,96,7.0,17.0,76,0.00,,,0.00,WUHU216DAVISVP2,2013-03-21 20:38:00,
2013-03-21 16:43:00,28.0,21.7,29.87,SE,127,10.0,17.0,77,0.00,,,0.00,WUHU216DAVISVP2,2013-03-21 20:43:00,
2013-03-21 16:48:00,27.9,21.3,29.87,East,101,12.0,17.0,76,0.00,,,0.00,WUHU216DAVISVP2,2013-03-21 20:48:00,
2013-03-21 16:53:00,27.8,21.6,29.87,East,95,6.0,18.0,77,0.00,,,0.00,WUHU216DAVISVP2,2013-03-21 20:53:00,
2013-03-21 16:58:00,27.7,21.8,29.88,SE,142,6.0,18.0,78,0.00,,,0.00,WUHU216DAVISVP2,2013-03-21 20:58:00,
2013-03-21 17:00:00,27.6,21.6,29.88,East,90,9.0,18.0,78,0.00,,,0.00,WUHU216DAVISVP2,2013-03-21 21:00:00,
2013-03-21 17:03:00,27.5,21.6,29.88,SE,144,6.0,18.0,78,0.00,,,0.00,WUHU216DAVISVP2,2013-03-21 21:03:00,
2013-03-21 17:08:00,27.4,21.2,29.88,ENE,75,13.0,18.0,77,0.00,,,0.00,WUHU216DAVISVP2,2013-03-21 21:08:00,
2013-03-21 17:13:00,27.3,21.0,29.88,ESE,120,6.0,18.0,77,0.00,,,0.00,WUHU216DAVISVP2,2013-03-21 21:13:00,
2013-03-21 17:18:00,27.4,20.6,29.88,SE,138,6.0,16.0,75,0.00,,,0.00,WUHU216DAVISVP2,2013-03-21 21:18:00,
2013-03-21 17:23:00,27.3,20.1,29.88,ENE,73,7.0,17.0,74,0.00,,,0.00,WUHU216DAVISVP2,2013-03-21 21:23:00,
2013-03-21 17:28:00,27.4,20.5,29.88,East,81,4.0,17.0,75,0.00,,,0.00,WUHU216DAVISVP2,2013-03-21 21:28:00,
2013-03-21 17:30:00,27.4,20.5,29.88,East,90,7.0,18.0,75,0.00,,,0.00,WUHU216DAVISVP2,2013-03-21 21:30:00,
2013-03-21 17:33:00,27.4,20.5,29.89,ENE,64,5.0,17.0,75,0.00,,,0.00,WUHU216DAVISVP2,2013-03-21 21:33:00,
2013-03-21 17:38:00,27.4,20.6,29.89,SE,128,8.0,17.0,75,0.00,,,0.00,WUHU216DAVISVP2,2013-03-21 21:38:00,
2013-03-21 17:43:00,27.4,19.9,29.89,ESE,110,8.0,16.0,73,0.00,,,0.00,WUHU216DAVISVP2,2013-03-21 21:43:00,
2013-03-21 17:49:00,27.2,19.7,29.89,SE,130,16.0,18.0,73,0.00,,,0.00,WUHU216DAVISVP2,2013-03-21 21:49:00,
2013-03-21 17:54:00,27.0,19.8,29.89,SSE,158,5.0,18.0,74,0.00,,,0.00,WUHU216DAVISVP2,2013-03-21 21:54:00,
2013-03-21 17:59:00,26.9,20.1,29.89,ESE,121,10.0,17.0,75,0.00,,,0.00,WUHU216DAVISVP2,2013-03-21 21:59:00,
2013-03-21 18:00:00,26.9,20.0,29.89,SE,135,8.0,18.0,75,0.00,,,0.00,WUHU216DAVISVP2,2013-03-21 22:00:00,
2013-03-21 18:04:00,26.8,20.0,29.89,SE,139,5.0,17.0,75,0.00,,,0.00,WUHU216DAVISVP2,2013-03-21 22:04:00,
2013-03-21 18:09:00,26.7,20.5,29.89,SSE,151,9.0,16.0,77,0.00,,,0.00,WUHU216DAVISVP2,2013-03-21 22:09:00,
2013-03-21 18:14:00,26.7,20.5,29.89,East,101,4.0,16.0,77,0.00,,,0.00,WUHU216DAVISVP2,2013-03-21 22:14:00,
2013-03-21 18:19:00,26.5,20.3,29.89,SE,128,6.0,13.0,77,0.00,,,0.00,WUHU216DAVISVP2,2013-03-21 22:19:00,
2013-03-21 18:24:00,26.5,20.0,29.89,SE,130,11.0,14.0,76,0.00,,,0.00,WUHU216DAVISVP2,2013-03-21 22:24:00,
2013-03-21 18:29:00,26.4,19.6,29.89,SE,136,7.0,16.0,75,0.00,,,0.00,WUHU216DAVISVP2,2013-03-21 22:29:00,
2013-03-21 18:30:00,26.4,19.2,29.89,SE,135,7.0,16.0,74,0.00,,,0.00,WUHU216DAVISVP2,2013-03-21 22:30:00,
2013-03-21 18:34:00,26.3,19.5,29.90,ESE,117,8.0,16.0,75,0.00,,,0.00,WUHU216DAVISVP2,2013-03-21 22:34:00,
2013-03-21 18:39:00,26.3,19.5,29.90,East,98,6.0,16.0,75,0.00,,,0.00,WUHU216DAVISVP2,2013-03-21 22:39:00,
2013-03-21 18:44:00,26.3,19.1,29.90,SSE,160,7.0,18.0,74,0.00,,,0.00,WUHU216DAVISVP2,2013-03-21 22:44:00,
2013-03-21 18:49:00,26.2,19.1,29.89,East,93,4.0,18.0,74,0.00,,,0.00,WUHU216DAVISVP2,2013-03-21 22:49:00,
2013-03-21 18:54:00,26.2,19.1,29.89,ESE,120,5.0,18.0,74,0.00,,,0.00,WUHU216DAVISVP2,2013-03-21 22:54:00,
2013-03-21 18:59:00,26.2,18.8,29.89,ESE,110,5.0,16.0,73,0.00,,,0.00,WUHU216DAVISVP2,2013-03-21 22:59:00,
2013-03-21 19:00:00,26.2,19.0,29.89,SE,135,7.0,17.0,74,0.00,,,0.00,WUHU216DAVISVP2,2013-03-21 23:00:00,
2013-03-21 19:04:00,26.2,18.8,29.89,ESE,105,8.0,17.0,73,0.00,,,0.00,WUHU216DAVISVP2,2013-03-21 23:04:00,
2013-03-21 19:10:00,26.1,18.6,29.89,SE,136,6.0,17.0,73,0.00,,,0.00,WUHU216DAVISVP2,2013-03-21 23:10:00,
2013-03-21 19:15:00,25.9,18.7,29.90,SE,136,7.0,17.0,74,0.00,,,0.00,WUHU216DAVISVP2,2013-03-21 23:15:00,
2013-03-21 19:20:00,25.9,18.8,29.89,SE,124,5.0,17.0,74,0.00,,,0.00,WUHU216DAVISVP2,2013-03-21 23:20:00,
2013-03-21 19:25:00,25.8,18.7,29.90,ENE,75,5.0,13.0,74,0.00,,,0.00,WUHU216DAVISVP2,2013-03-21 23:25:00,
2013-03-21 19:30:00,25.7,18.6,29.90,East,91,9.0,17.0,74,0.00,,,0.00,WUHU216DAVISVP2,2013-03-21 23:30:00,
2013-03-21 19:35:00,25.6,18.8,29.90,ESE,115,7.0,17.0,75,0.00,,,0.00,WUHU216DAVISVP2,2013-03-21 23:35:00,
2013-03-21 19:40:00,25.5,18.7,29.90,East,86,3.0,17.0,75,0.00,,,0.00,WUHU216DAVISVP2,2013-03-21 23:40:00,
2013-03-21 19:45:00,25.4,18.9,29.90,East,84,8.0,17.0,76,0.00,,,0.00,WUHU216DAVISVP2,2013-03-21 23:45:00,
2013-03-21 19:50:00,25.3,18.8,29.90,ESE,122,11.0,13.0,76,0.00,,,0.00,WUHU216DAVISVP2,2013-03-21 23:50:00,
2013-03-21 19:55:00,25.2,18.7,29.90,East,96,14.0,15.0,76,0.00,,,0.00,WUHU216DAVISVP2,2013-03-21 23:55:00,
2013-03-21 20:00:00,25.1,18.9,29.90,ESE,116,8.0,15.0,77,0.00,,,0.00,WUHU216DAVISVP2,2013-03-22 00:00:00,
2013-03-21 20:05:00,25.0,18.5,29.90,ENE,70,10.0,14.0,76,0.00,,,0.00,WUHU216DAVISVP2,2013-03-22 00:05:00,
2013-03-21 20:10:00,25.0,18.5,29.90,ESE,113,6.0,14.0,76,0.00,,,0.00,WUHU216DAVISVP2,2013-03-22 00:10:00,
2013-03-21 20:15:00,24.9,19.0,29.90,SE,129,3.0,12.0,78,0.00,,,0.00,WUHU216DAVISVP2,2013-03-22 00:15:00,
2013-03-21 20:20:00,24.8,19.2,29.90,East,94,5.0,14.0,79,0.00,,,0.00,WUHU216DAVISVP2,2013-03-22 00:20:00,
2013-03-21 20:25:00,24.7,19.4,29.90,SSE,151,6.0,14.0,80,0.00,,,0.00,WUHU216DAVISVP2,2013-03-22 00:25:00,
2013-03-21 20:30:00,24.6,19.3,29.91,ENE,68,5.0,13.0,80,0.00,,,0.00,WUHU216DAVISVP2,2013-03-22 00:30:00,
2013-03-21 20:35:00,24.6,19.3,29.91,SE,129,4.0,13.0,80,0.00,,,0.00,WUHU216DAVISVP2,2013-03-22 00:35:00,
2013-03-21 20:40:00,24.6,19.0,29.91,SE,132,3.0,13.0,79,0.00,,,0.00,WUHU216DAVISVP2,2013-03-22 00:40:00,
2013-03-21 20:45:00,24.6,19.3,29.91,East,100,5.0,13.0,80,0.00,,,0.00,WUHU216DAVISVP2,2013-03-22 00:45:00,
2013-03-21 20:50:00,24.5,19.2,29.91,ESE,111,5.0,13.0,80,0.00,,,0.00,WUHU216DAVISVP2,2013-03-22 00:50:00,
2013-03-21 20:55:00,24.5,19.2,29.91,East,85,4.0,13.0,80,0.00,,,0.00,WUHU216DAVISVP2,2013-03-22 00:55:00,
2013-03-21 21:00:00,24.4,19.1,29.91,ESE,121,5.0,12.0,80,0.00,,,0.00,WUHU216DAVISVP2,2013-03-22 01:00:00,
2013-03-21 21:05:00,24.4,19.1,29.91,ESE,110,5.0,12.0,80,0.00,,,0.00,WUHU216DAVISVP2,2013-03-22 01:05:00,
2013-03-21 21:10:00,24.5,18.9,29.91,East,88,5.0,11.0,79,0.00,,,0.00,WUHU216DAVISVP2,2013-03-22 01:10:00,
2013-03-21 21:15:00,24.5,18.9,29.91,SE,129,8.0,11.0,79,0.00,,,0.00,WUHU216DAVISVP2,2013-03-22 01:15:00,
2013-03-21 21:20:00,24.4,19.1,29.91,ESE,118,3.0,12.0,80,0.00,,,0.00,WUHU216DAVISVP2,2013-03-22 01:20:00,
2013-03-21 21:25:00,24.4,19.1,29.91,ENE,65,4.0,12.0,80,0.00,,,0.00,WUHU216DAVISVP2,2013-03-22 01:25:00,
2013-03-21 21:30:00,24.3,19.0,29.91,East,86,7.0,12.0,80,0.00,,,0.00,WUHU216DAVISVP2,2013-03-22 01:30:00,
2013-03-21 21:35:00,24.3,19.0,29.92,East,90,5.0,12.0,80,0.00,,,0.00,WUHU216DAVISVP2,2013-03-22 01:35:00,
2013-03-21 21:40:00,24.3,19.0,29.92,East,87,8.0,13.0,80,0.00,,,0.00,WUHU216DAVISVP2,2013-03-22 01:40:00,
2013-03-21 21:45:00,24.3,19.0,29.92,East,89,7.0,13.0,80,0.00,,,0.00,WUHU216DAVISVP2,2013-03-22 01:45:00,
2013-03-21 21:50:00,24.3,19.0,29.92,East,91,7.0,13.0,80,0.00,,,0.00,WUHU216DAVISVP2,2013-03-22 01:50:00,
2013-03-21 21:55:00,24.3,18.7,29.92,SE,124,6.0,11.0,79,0.00,,,0.00,WUHU216DAVISVP2,2013-03-22 01:55:00,
2013-03-21 22:00:00,24.3,19.0,29.92,SE,131,3.0,11.0,80,0.00,,,0.00,WUHU216DAVISVP2,2013-03-22 02:00:00,
2013-03-21 22:05:00,24.3,19.0,29.92,East,98,2.0,11.0,80,0.00,,,0.00,WUHU216DAVISVP2,2013-03-22 02:05:00,
2013-03-21 22:10:00,24.2,18.9,29.92,SE,141,6.0,11.0,80,0.00,,,0.00,WUHU216DAVISVP2,2013-03-22 02:10:00,
2013-03-21 22:15:00,24.2,18.6,29.92,East,101,3.0,9.0,79,0.00,,,0.00,WUHU216DAVISVP2,2013-03-22 02:15:00,
2013-03-21 22:20:00,24.3,18.7,29.92,ESE,103,5.0,10.0,79,0.00,,,0.00,WUHU216DAVISVP2,2013-03-22 02:20:00,
2013-03-21 22:25:00,24.2,18.9,29.92,ESE,117,5.0,10.0,80,0.00,,,0.00,WUHU216DAVISVP2,2013-03-22 02:25:00,
2013-03-21 22:30:00,24.2,18.9,29.92,ESE,120,5.0,14.0,80,0.00,,,0.00,WUHU216DAVISVP2,2013-03-22 02:30:00,
2013-03-21 22:35:00,24.1,18.8,29.92,ENE,74,9.0,14.0,80,0.00,,,0.00,WUHU216DAVISVP2,2013-03-22 02:35:00,
2013-03-21 22:40:00,24.1,19.1,29.92,SE,129,2.0,14.0,81,0.00,,,0.00,WUHU216DAVISVP2,2013-03-22 02:40:00,
2013-03-21 22:45:00,24.0,19.0,29.92,ESE,110,3.0,9.0,81,0.00,,,0.00,WUHU216DAVISVP2,2013-03-22 02:45:00,
2013-03-21 22:50:00,24.0,19.0,29.92,East,91,2.0,8.0,81,0.00,,,0.00,WUHU216DAVISVP2,2013-03-22 02:50:00,
2013-03-21 22:55:00,24.0,19.0,29.92,East,82,6.0,8.0,81,0.00,,,0.00,WUHU216DAVISVP2,2013-03-22 02:55:00,
2013-03-21 23:00:00,24.0,19.0,29.92,ESE,108,3.0,8.0,81,0.00,,,0.00,WUHU216DAVISVP2,2013-03-22 03:00:00,
2013-03-21 23:05:00,23.9,18.9,29.92,ESE,105,2.0,7.0,81,0.00,,,0.00,WUHU216DAVISVP2,2013-03-22 03:05:00,
2013-03-21 23:10:00,23.9,18.9,29.92,East,89,2.0,7.0,81,0.00,,,0.00,WUHU216DAVISVP2,2013-03-22 03:10:00,
2013-03-21 23:15:00,23.9,18.9,29.92,ESE,119,3.0,6.0,81,0.00,,,0.00,WUHU216DAVISVP2,2013-03-22 03:15:00,
2013-03-21 23:20:00,23.9,18.9,29.92,East,99,5.0,8.0,81,0.00,,,0.00,WUHU216DAVISVP2,2013-03-22 03:20:00,
2013-03-21 23:25:00,23.9,18.9,29.92,ENE,68,5.0,8.0,81,0.00,,,0.00,WUHU216DAVISVP2,2013-03-22 03:25:00,
2013-03-21 23:30:00,23.9,18.9,29.92,ESE,115,1.0,8.0,81,0.00,,,0.00,WUHU216DAVISVP2,2013-03-22 03:30:00,
2013-03-21 23:35:00,23.8,18.8,29.92,East,95,1.0,8.0,81,0.00,,,0.00,WUHU216DAVISVP2,2013-03-22 03:35:00,
2013-03-21 23:40:00,23.8,18.8,29.92,ESE,115,1.0,6.0,81,0.00,,,0.00,WUHU216DAVISVP2,2013-03-22 03:40:00,
2013-03-21 23:45:00,23.8,18.8,29.93,SSE,158,1.0,5.0,81,0.00,,,0.00,WUHU216DAVISVP2,2013-03-22 03:45:00,
2013-03-21 23:50:00,23.8,18.8,29.93,ESE,119,5.0,5.0,81,0.00,,,0.00,WUHU216DAVISVP2,2013-03-22 03:50:00,
2013-03-21 23:55:00,23.8,18.8,29.92,SE,124,3.0,5.0,81,0.00,,,0.00,WUHU216DAVISVP2,2013-03-22 03:55:00,